Flag for U.S.A. Weather past 2 weeks in Midland, Texas, U.S.A.

Now
74 °F

Light rain. Cloudy.


Feels Like: 76 °F
Forecast: 74 / 91 °F
Wind: 8 mph from Northwest

Location: Midland - Midland Airpark

Current Time: Aug 29, 2015 at 12:36:28 PM

Latest Report: Aug 29, 2015 at 12:15 PM


Visibility: 10 mi

Pressure: 30.19 "Hg (27.38 "Hg at 847m altitude)

Humidity: 71%

Dew point: 64 °F

Location of MidlandLocation

Historic Weather in Midland — Graph

°F

Midland temperature yesterday

Maximum temperature yesterday: 99 °F (at 4:15 PM)
Minimum temperature yesterday: 76 °F (at 7:55 AM)
Average temperature yesterday: 87 °F

Past Weeks' High & Low Weather Summary

 TemperatureHumidityPressure
High101 °F (Aug 14, 1:55 PM)100% (Aug 14, 8:55 PM)30.25 "Hg (Aug 14, 8:55 PM)
Low64 °F (Aug 20, 7:35 AM)13% (Aug 28, 6:35 PM)29.75 "Hg (Aug 18, 6:35 PM)
Average83 °F48%30.05 "Hg
* Reported Aug 14 11:15 AM — Aug 29 11:15 AM, Midland, Weather by CustomWeather, © 2015

Note: Actual official high and low records may vary slightly from our data, if they occured in-between our weather recording intervals... More about our weather records

Advertising

Midland weather history for previous 24 hours

 ConditionsComfort  
Time TempWeatherWind HumidityBarometerVisibility
11:15 AM
Sat, Aug 29
76 °FSunny.7 mph65%30.19 "Hg10 mi
10:55 AM75 °FScattered clouds.7 mph67%30.18 "Hg10 mi
10:35 AM74 °FScattered clouds.9 mph69%30.17 "Hg10 mi
10:15 AM73 °FLight rain. Partly sunny.9 mph74%30.17 "Hg10 mi
9:55 AM73 °FPartly sunny.12 mph75%30.16 "Hg10 mi
9:35 AM73 °FPartly sunny.9 mph78%30.16 "Hg10 mi
9:15 AM72 °FDrizzle. Broken clouds.8 mph78%30.15 "Hg10 mi
8:55 AM72 °FLight rain. Broken clouds.8 mph79%30.14 "Hg10 mi
8:35 AM72 °FPartly sunny.6 mph79%30.14 "Hg10 mi
8:15 AM72 °FLight rain. Overcast.3 mph79%30.14 "Hg10 mi
7:55 AM72 °FRain. Overcast.3 mph79%30.14 "Hg10 mi
7:35 AM74 °FLight rain. Overcast.5 mph70%30.13 "Hg10 mi
6:55 AM76 °FOvercast.No wind56%30.12 "Hg10 mi
6:15 AM76 °FPassing clouds.No wind58%30.10 "Hg10 mi
5:55 AM76 °FPassing clouds.3 mph56%30.10 "Hg10 mi
4:55 AM77 °FPassing clouds.9 mph54%30.10 "Hg10 mi
4:35 AM77 °FPassing clouds.7 mph54%30.11 "Hg10 mi
4:15 AM78 °FPassing clouds.6 mph52%30.11 "Hg10 mi
3:55 AM79 °FPassing clouds.5 mph50%30.11 "Hg10 mi
2:55 AM79 °FPassing clouds.3 mph50%30.12 "Hg10 mi
2:15 AM79 °FPassing clouds.8 mph50%30.13 "Hg10 mi
1:55 AM79 °FOvercast.9 mph51%30.13 "Hg10 mi
12:55 AM81 °FOvercast.7 mph42%30.08 "Hg10 mi
12:35 AM84 °FOvercast.8 mph32%30.06 "Hg10 mi
12:15 AM85 °FPassing clouds.No wind30%30.05 "Hg10 mi
11:55 PM
Fri, Aug 28
85 °FPassing clouds.5 mph29%30.05 "Hg10 mi
11:35 PM85 °FClear.8 mph30%30.05 "Hg10 mi
10:55 PM85 °FPassing clouds.6 mph30%30.06 "Hg10 mi
10:15 PM84 °FClear.8 mph38%30.04 "Hg10 mi
9:55 PM85 °FClear.9 mph36%30.04 "Hg10 mi
9:15 PM87 °FSunny.9 mph29%30.01 "Hg10 mi
8:55 PM88 °FSunny.10 mph29%30.00 "Hg10 mi
8:15 PM85 °FScattered clouds.12 mph36%29.98 "Hg10 mi
7:55 PM87 °FPartly sunny.16 mph31%29.97 "Hg10 mi
7:35 PM95 °FPartly sunny.5 mph13%29.97 "Hg10 mi
7:15 PM96 °FThundershowers. Sunny.10 mph13%29.95 "Hg10 mi
6:55 PM96 °FThundershowers. Sunny.10 mph13%29.95 "Hg10 mi
6:35 PM97 °FSunny.13 mph13%29.94 "Hg10 mi
6:15 PM97 °FSunny.10 mph14%29.94 "Hg10 mi
5:55 PM98 °FSunny.8 mph15%29.94 "Hg10 mi
5:15 PM99 °FSunny.8 mph16%29.95 "Hg10 mi
4:55 PM99 °FSunny.12 mph16%29.94 "Hg10 mi
4:15 PM99 °FSunny.14 mph17%29.96 "Hg10 mi
3:55 PM99 °FSunny.7 mph17%29.96 "Hg10 mi
3:35 PM99 °FSunny.7 mph17%29.97 "Hg10 mi
3:15 PM98 °FSunny.7 mph17%29.99 "Hg10 mi
2:55 PM98 °FSunny.10 mph18%30.00 "Hg10 mi
2:35 PM98 °FSunny.9 mph19%30.00 "Hg10 mi
2:15 PM97 °FSunny.12 mph20%30.01 "Hg10 mi
1:55 PM96 °FSunny.10 mph20%30.03 "Hg10 mi
1:35 PM95 °FSunny.12 mph22%30.03 "Hg10 mi
1:15 PM94 °FSunny.12 mph22%30.04 "Hg10 mi
12:55 PM93 °FSunny.10 mph24%30.04 "Hg10 mi
12:35 PM93 °FSunny.12 mph25%30.05 "Hg10 mi
12:15 PM91 °FSunny.12 mph26%30.06 "Hg10 mi
Weather by CustomWeather, © 2015

See weather overviewHow to use our weather pages